Hourly Weather Kivercy

Today, 25 July, Sunday

Time Temperature Precipitation Wind Pressure Humidity
00:00 +20°C° 0 mm 2 mps 745 mmHg 62%
01:00 +20°C° 0 mm 2 mps 745 mmHg 64%
02:00 +20°C° 0 mm 2 mps 745 mmHg 65%
03:00 +19°C° 0 mm 2 mps 745 mmHg 66%
04:00 +19°C° 0 mm 2 mps 745 mmHg 66%
05:00 +19°C° 0 mm 2 mps 745 mmHg 67%
06:00 +20°C° 0 mm 2 mps 745 mmHg 64%
07:00 +21°C° 0 mm 2 mps 745 mmHg 61%
08:00 +21°C° 0 mm 2 mps 745 mmHg 61%
09:00 +24°C° 0 mm 2 mps 745 mmHg 56%
10:00 +25°C° 0 mm 3 mps 746 mmHg 52%
11:00 +26°C° 0 mm 3 mps 746 mmHg 48%
12:00 +27°C° 0 mm 3 mps 746 mmHg 44%
13:00 +28°C° 0 mm 3 mps 745 mmHg 41%
14:00 +29°C° 0 mm 3 mps 745 mmHg 37%
15:00 +29°C° 0 mm 3 mps 745 mmHg 39%
16:00 +28°C° 0 mm 3 mps 745 mmHg 41%
17:00 +28°C° 0 mm 3 mps 745 mmHg 43%
18:00 +27°C° 0 mm 3 mps 745 mmHg 50%
19:00 +25°C° 0 mm 3 mps 745 mmHg 57%
20:00 +22°C° 0 mm 3 mps 745 mmHg 64%
21:00 +22°C° 0 mm 3 mps 745 mmHg 65%
22:00 +21°C° 0 mm 3 mps 745 mmHg 66%
23:00 +21°C° 0 mm 3 mps 745 mmHg 67%

Tomorrow, 26 July, Monday

Time Temperature Precipitation Wind Pressure Humidity
00:00 +20°C° 0 mm 3 mps 745 mmHg 68%
01:00 +19°C° 0 mm 3 mps 745 mmHg 69%
02:00 +19°C° 0 mm 3 mps 745 mmHg 70%
03:00 +19°C° 0 mm 3 mps 745 mmHg 69%
04:00 +19°C° 0 mm 4 mps 745 mmHg 68%
05:00 +19°C° 0 mm 4 mps 745 mmHg 67%
06:00 +20°C° 0 mm 4 mps 745 mmHg 64%
07:00 +21°C° 0 mm 5 mps 745 mmHg 61%
08:00 +22°C° 0 mm 5 mps 745 mmHg 59%
09:00 +25°C° 0 mm 5 mps 745 mmHg 56%
10:00 +26°C° 0 mm 5 mps 745 mmHg 53%
11:00 +27°C° 0 mm 5 mps 745 mmHg 50%
12:00 +25°C° 0.4 mm 5 mps 745 mmHg 61%
13:00 +22°C° 0.4 mm 4 mps 745 mmHg 71%
14:00 +20°C° 0.4 mm 4 mps 745 mmHg 82%
15:00 +22°C° 0 mm 4 mps 745 mmHg 74%
16:00 +25°C° 0 mm 5 mps 745 mmHg 66%
17:00 +27°C° 0 mm 5 mps 744 mmHg 59%
18:00 +25°C° 0.2 mm 5 mps 744 mmHg 66%
19:00 +23°C° 0.2 mm 4 mps 744 mmHg 73%
20:00 +21°C° 0.2 mm 3 mps 744 mmHg 81%
21:00 +20°C° 0.2 mm 3 mps 744 mmHg 83%
22:00 +19°C° 0.2 mm 3 mps 744 mmHg 86%
23:00 +19°C° 0.2 mm 3 mps 744 mmHg 88%

Day after tomorrow, 27 July, Tuesday

Time Temperature Precipitation Wind Pressure Humidity
00:00 +18°C° 0.5 mm 3 mps 744 mmHg 89%
01:00 +18°C° 0.5 mm 3 mps 744 mmHg 90%
02:00 +18°C° 0.5 mm 3 mps 743 mmHg 90%
03:00 +18°C° 0.5 mm 3 mps 743 mmHg 90%
04:00 +18°C° 0.5 mm 4 mps 743 mmHg 90%
05:00 +17°C° 0.5 mm 4 mps 743 mmHg 90%
06:00 +19°C° 0.8 mm 4 mps 743 mmHg 87%
07:00 +20°C° 0.8 mm 4 mps 743 mmHg 84%
08:00 +22°C° 0.8 mm 4 mps 743 mmHg 81%
09:00 +25°C° 0.1 mm 4 mps 743 mmHg 73%
10:00 +27°C° 0.1 mm 3 mps 743 mmHg 65%
11:00 +29°C° 0.1 mm 3 mps 743 mmHg 57%
12:00 +30°C° 0 mm 4 mps 743 mmHg 54%
13:00 +32°C° 0 mm 4 mps 742 mmHg 51%
14:00 +33°C° 0 mm 5 mps 742 mmHg 48%
15:00 +32°C° 0 mm 4 mps 742 mmHg 53%
16:00 +30°C° 0 mm 4 mps 742 mmHg 58%
17:00 +28°C° 0 mm 4 mps 742 mmHg 62%
18:00 +27°C° 0.7 mm 3 mps 742 mmHg 70%
19:00 +25°C° 0.7 mm 3 mps 742 mmHg 77%
20:00 +24°C° 0.7 mm 3 mps 742 mmHg 85%
21:00 +23°C° 0.4 mm 2 mps 742 mmHg 88%
22:00 +21°C° 0.4 mm 2 mps 743 mmHg 90%
23:00 +21°C° 0.4 mm 2 mps 743 mmHg 93%

28 July, Wednesday

Time Temperature Precipitation Wind Pressure Humidity
00:00 +20°C° 0.1 mm 2 mps 743 mmHg 93%
01:00 +20°C° 0.1 mm 2 mps 743 mmHg 93%
02:00 +21°C° 0.1 mm 1 mps 743 mmHg 93%
03:00 +20°C° 0 mm 2 mps 743 mmHg 93%
04:00 +20°C° 0 mm 2 mps 743 mmHg 93%
05:00 +19°C° 0 mm 2 mps 743 mmHg 93%
06:00 +21°C° 0 mm 2 mps 743 mmHg 88%
07:00 +23°C° 0 mm 2 mps 743 mmHg 83%
08:00 +25°C° 0 mm 2 mps 743 mmHg 79%
09:00 +26°C° 0 mm 2 mps 743 mmHg 70%
10:00 +28°C° 0 mm 3 mps 744 mmHg 62%
11:00 +29°C° 0 mm 3 mps 744 mmHg 54%
12:00 +30°C° 0 mm 2 mps 743 mmHg 50%
13:00 +30°C° 0 mm 2 mps 743 mmHg 46%
14:00 +31°C° 0 mm 2 mps 743 mmHg 41%
15:00 +31°C° 0 mm 2 mps 743 mmHg 41%
16:00 +31°C° 0 mm 2 mps 743 mmHg 41%
17:00 +31°C° 0 mm 1 mps 742 mmHg 41%
18:00 +29°C° 0 mm 1 mps 742 mmHg 46%
19:00 +27°C° 0 mm 1 mps 742 mmHg 52%
20:00 +26°C° 0 mm 1 mps 742 mmHg 58%
21:00 +25°C° 0.1 mm 1 mps 742 mmHg 63%
22:00 +24°C° 0.1 mm 2 mps 742 mmHg 68%
23:00 +23°C° 0.1 mm 2 mps 743 mmHg 72%

29 July, Thursday

Time Temperature Precipitation Wind Pressure Humidity
00:00 +23°C° 0 mm 2 mps 742 mmHg 75%
01:00 +22°C° 0 mm 1 mps 742 mmHg 77%
02:00 +22°C° 0 mm 1 mps 742 mmHg 80%
03:00 +22°C° 0 mm 1 mps 742 mmHg 81%
04:00 +21°C° 0 mm 1 mps 742 mmHg 83%
05:00 +19°C° 0 mm 0 mps 742 mmHg 84%
06:00 +22°C° 0.2 mm 1 mps 742 mmHg 81%
07:00 +23°C° 0.2 mm 1 mps 742 mmHg 78%
08:00 +24°C° 0.2 mm 1 mps 742 mmHg 74%
09:00 +26°C° 0 mm 1 mps 742 mmHg 69%
10:00 +27°C° 0 mm 1 mps 742 mmHg 65%
11:00 +28°C° 0 mm 1 mps 742 mmHg 60%
12:00 +28°C° 0.1 mm 2 mps 742 mmHg 60%
13:00 +28°C° 0.1 mm 3 mps 742 mmHg 60%
14:00 +28°C° 0.1 mm 4 mps 742 mmHg 61%
15:00 +28°C° 0.3 mm 4 mps 742 mmHg 64%
16:00 +27°C° 0.3 mm 5 mps 742 mmHg 67%
17:00 +26°C° 0.3 mm 5 mps 742 mmHg 70%
18:00 +25°C° 0.3 mm 4 mps 742 mmHg 74%
19:00 +23°C° 0.3 mm 4 mps 742 mmHg 79%
20:00 +22°C° 0.3 mm 3 mps 742 mmHg 83%
21:00 +21°C° 0 mm 3 mps 742 mmHg 85%
22:00 +20°C° 0 mm 2 mps 742 mmHg 88%
23:00 +20°C° 0 mm 2 mps 742 mmHg 90%

30 July, Friday

Time Temperature Precipitation Wind Pressure Humidity
00:00 +19°C° 0 mm 2 mps 742 mmHg 90%
01:00 +19°C° 0 mm 2 mps 742 mmHg 91%
02:00 +20°C° 0 mm 1 mps 743 mmHg 91%
03:00 +19°C° 0 mm 1 mps 743 mmHg 92%
04:00 +19°C° 0 mm 1 mps 742 mmHg 92%
05:00 +19°C° 0 mm 1 mps 742 mmHg 92%
06:00 +21°C° 0 mm 1 mps 743 mmHg 86%
07:00 +22°C° 0 mm 1 mps 743 mmHg 81%
08:00 +24°C° 0 mm 1 mps 743 mmHg 75%
09:00 +25°C° 0 mm 1 mps 743 mmHg 67%
10:00 +27°C° 0 mm 1 mps 742 mmHg 60%
11:00 +26°C° 0 mm 0 mps 742 mmHg 52%
12:00 +29°C° 0 mm 1 mps 742 mmHg 49%
13:00 +30°C° 0 mm 1 mps 742 mmHg 46%
14:00 +30°C° 0 mm 1 mps 741 mmHg 42%
15:00 +30°C° 0 mm 2 mps 741 mmHg 43%
16:00 +30°C° 0 mm 2 mps 741 mmHg 43%
17:00 +30°C° 0 mm 2 mps 741 mmHg 43%
18:00 +29°C° 0 mm 2 mps 740 mmHg 50%
19:00 +27°C° 0 mm 2 mps 740 mmHg 57%
20:00 +25°C° 0 mm 2 mps 740 mmHg 64%
21:00 +24°C° 0 mm 2 mps 740 mmHg 66%
22:00 +24°C° 0 mm 3 mps 740 mmHg 68%
23:00 +22°C° 0 mm 3 mps 740 mmHg 70%
Show more